COSMOS 1900 DEB, 43499

Orbit data source: Space-Track

COSMOS 1900 DEB, 43499 is space debris in LEO originally from a launch on Sat, 12 Dec 1987 UTC launched from the Tyuratam Missile And Space Complex (TTMTR). Debris objects in space refer to the collection of defunct objects orbiting the Earth. Examples of debris include non-operational satellites, rocket bodies, and fragments generated from explosions, collisions, or faulty payload assembly.

Loading next visibility...
Identifier
43499, 1987-101D
Orbit
LEO
Country
Flag of CISCIS
Related business
Manufacturer
Unknown
Mission
Spacecraft
Bus & Motor
Unknown
Mass
Unknown
Launch date (UTC)
1987-12-12 (38 years ago)
Launch vehicle
Unknown
Launch site
Tyuratam Missile And Space Complex (TTMTR)
Object type
Payload
Rocket body
Debris
Shape & HBR
Unknown
Radar Cross Section
Small (<0.1 m²)

Expand to show TLE details & history
Last TLE update: 2 days ago

TLE from 2 days ago
0 COSMOS 1900 DEB
1 43499U 87101D   25259.10336260  .00000699  00000-0  16715-3 0  9997
2 43499  66.0792  39.6449 0043293 262.3222  97.2969 14.59615656554730
Epoch: 2025-09-16T02:28Z
TLE epoch observation values (Epoch: 2025-09-16T02:28:50.528Z)
Latitude
0.00003°
Longitude
7.13591°
Altitude
700.521 km
Speed
7.504 km/s
True Right ascension
02h 38m 34s
True Declination
0° 00' 00"
Sunlit
Object was in full shadow at epoch
Visualization orbit readout
Latitude
Unknown
Longitude
Unknown
Altitude
Unknown
Speed
Unknown
Apparent Right ascension
Unknown
Apparent Declination
Unknown
Sunlit
N/A
Visualization observer readout
Local Sidereal Time
09:21:48
Azimuth
Unknown
Elevation
Unknown
Doppler factor
Unknown
Orbital elements
Apogee altitude
723.454 km
Perigee altitude
662.23 km
Semi-major axis
7,070.979 km
Eccentricity
0.00433
Inclination
66.0792°
RAAN
39.6449°
Arg. of periapsis
262.3222°
True anomaly
97.78864°
Mean anomaly
97.2969°
Eccentric anomaly
97.5428°
Mean motion
3.65026 °/min
Orbital period
98.62 mins
BSTAR
0.00016715
Loading maneuver chart data...
Computing Atmospheric mass density...
Loading historical data...
Loading historical data...
Loading historical data...
Loading historical data...
Loading historical data...
Loading historical data...
Loading historical data...

Documentation

Showing up to 5 results
|